| time (UTC) | temp F | wind direction | speed MPH | gust MPH | rain 1hr in | rain 24hr in | rain mn in | humidity % | barometer mb |
| 20260905012521 | 69 | 0 | 0.0 | 2.0 | 0.00 | 0.00 | 0.00 | 62 | 1013.8 |
| 20260905012021 | 69 | 0 | 0.0 | 2.0 | 0.00 | 0.00 | 0.00 | 62 | 1013.8 |
| 20260905011542 | 70 | 0 | 0.0 | 2.0 | 0.00 | 0.00 | 0.00 | 61 | 1013.8 |
| 20260905011024 | 70 | 292 | 0.0 | 2.0 | 0.00 | 0.00 | 0.00 | 57 | 1013.8 |
| 20260905010521 | 71 | 0 | 0.0 | 2.0 | 0.00 | 0.00 | 0.00 | 57 | 1013.8 |
| 20260905010042 | 71 | 250 | 0.0 | 2.0 | 0.00 | 0.00 | 0.00 | 57 | 1013.8 |
| 20260905005520 | 71 | 0 | 0.0 | 2.0 | 0.00 | 0.00 | 0.00 | 56 | 1013.7 |
| 20260905005020 | 71 | 0 | 0.0 | 2.0 | 0.00 | 0.00 | 0.00 | 55 | 1013.7 |
| 20260905004556 | 71 | 130 | 0.0 | 2.0 | 0.00 | 0.00 | 0.00 | 59 | 1013.7 |
| 20260905004018 | 72 | 198 | 0.0 | 2.0 | 0.00 | 0.00 | 0.00 | 54 | 1013.6 |
| 20260905003521 | 72 | 209 | 0.0 | 2.0 | 0.00 | 0.00 | 0.00 | 57 | 1013.5 |
| 20260905003037 | 71 | 0 | 0.0 | 2.0 | 0.00 | 0.00 | 0.00 | 55 | 1013.4 |
| 20260905002518 | 71 | 0 | 0.0 | 2.0 | 0.00 | 0.00 | 0.00 | 57 | 1013.4 |
| 20260905002026 | 71 | 9 | 0.0 | 2.0 | 0.00 | 0.00 | 0.00 | 55 | 1013.4 |
| 20260905001538 | 71 | 0 | 0.0 | 2.0 | 0.00 | 0.00 | 0.00 | 58 | 1013.3 |
| 20260905001020 | 71 | 0 | 0.0 | 2.0 | 0.00 | 0.00 | 0.00 | 59 | 1013.3 |
| 20260905000521 | 71 | 118 | 0.0 | 2.0 | 0.00 | 0.00 | 0.00 | 58 | 1013.3 |
| 20260905000048 | 71 | 65 | 0.0 | 2.0 | 0.00 | 0.00 | 0.00 | 57 | 1013.3 |
| 20260904235520 | 71 | 0 | 0.0 | 2.0 | 0.00 | 0.00 | 0.00 | 61 | 1013.2 |
| 20260904235018 | 71 | 110 | 1.0 | 2.0 | 0.00 | 0.00 | 0.00 | 56 | 1013.2 |
| 20260904234538 | 71 | 245 | 0.0 | 2.0 | 0.00 | 0.00 | 0.00 | 59 | 1013.2 |
| 20260904234019 | 71 | 219 | 0.0 | 2.0 | 0.00 | 0.00 | 0.00 | 58 | 1013.2 |
| 20260904233521 | 71 | 265 | 0.0 | 2.0 | 0.00 | 0.00 | 0.00 | 60 | 1013.2 |
| 20260904233037 | 71 | 207 | 0.0 | 2.0 | 0.00 | 0.00 | 0.00 | 56 | 1013.2 |
| 20260904232521 | 71 | 186 | 1.0 | 3.0 | 0.00 | 0.00 | 0.00 | 55 | 1013.1 |
| 20260904232024 | 72 | 226 | 0.0 | 3.0 | 0.00 | 0.00 | 0.00 | 57 | 1013.2 |
| 20260904231539 | 72 | 271 | 1.0 | 3.0 | 0.00 | 0.00 | 0.00 | 58 | 1013.2 |
| 20260904231023 | 72 | 82 | 0.0 | 2.0 | 0.00 | 0.00 | 0.00 | 57 | 1013.1 |
| 20260904230520 | 72 | 205 | 0.0 | 3.0 | 0.00 | 0.00 | 0.00 | 59 | 1013.2 |
| 20260904230036 | 72 | 249 | 1.0 | 3.0 | 0.00 | 0.00 | 0.00 | 61 | 1013.3 |
| 20260904225518 | 72 | 88 | 0.0 | 2.0 | 0.00 | 0.01 | 0.00 | 60 | 1013.3 |
| 20260904225020 | 72 | 301 | 1.0 | 2.0 | 0.00 | 0.01 | 0.00 | 56 | 1013.3 |
| 20260904224536 | 72 | 226 | 0.0 | 2.0 | 0.00 | 0.01 | 0.00 | 61 | 1013.2 |
| 20260904224018 | 71 | 0 | 0.0 | 2.0 | 0.00 | 0.01 | 0.00 | 63 | 1013.3 |
| 20260904223516 | 71 | 288 | 1.0 | 2.0 | 0.00 | 0.01 | 0.00 | 62 | 1013.3 |
| 20260904223039 | 71 | 215 | 1.0 | 2.0 | 0.00 | 0.01 | 0.00 | 62 | 1013.3 |
| 20260904222518 | 70 | 320 | 0.0 | 2.0 | 0.00 | 0.01 | 0.00 | 63 | 1013.3 |
| 20260904222022 | 70 | 155 | 0.0 | 2.0 | 0.00 | 0.01 | 0.00 | 61 | 1013.2 |
| 20260904221538 | 69 | 66 | 0.0 | 2.0 | 0.00 | 0.01 | 0.00 | 64 | 1013.2 |
| 20260904221021 | 68 | 0 | 1.0 | 2.0 | 0.00 | 0.01 | 0.00 | 64 | 1013.3 |
| 20260904220521 | 67 | 211 | 0.0 | 2.0 | 0.00 | 0.01 | 0.00 | 74 | 1013.4 |
| 20260904220039 | 66 | 150 | 1.0 | 3.0 | 0.00 | 0.01 | 0.00 | 72 | 1013.3 |
| 20260904215521 | 66 | 0 | 0.0 | 3.0 | 0.00 | 0.05 | 0.00 | 75 | 1013.3 |
| 20260904215017 | 66 | 173 | 1.0 | 3.0 | 0.00 | 0.05 | 0.00 | 73 | 1013.5 |
| 20260904214542 | 66 | 74 | 0.0 | 2.0 | 0.00 | 0.05 | 0.00 | 74 | 1013.5 |
| 20260904214026 | 65 | 0 | 0.0 | 3.0 | 0.00 | 0.05 | 0.00 | 75 | 1013.6 |
| 20260904213527 | 65 | 0 | 0.0 | 3.0 | 0.00 | 0.05 | 0.00 | 75 | 1013.5 |
| 20260904213044 | 65 | 58 | 0.0 | 2.0 | 0.00 | 0.05 | 0.00 | 74 | 1013.5 |
| 20260904212518 | 65 | 34 | 0.0 | 2.0 | 0.00 | 0.05 | 0.00 | 71 | 1013.5 |
| 20260904212021 | 65 | 69 | 0.0 | 2.0 | 0.00 | 0.05 | 0.00 | 72 | 1013.4 |
| 20260904211544 | 66 | 0 | 0.0 | 0.0 | 0.00 | 0.05 | 0.00 | 72 | 1013.5 |
| 20260904211021 | 66 | 0 | 0.0 | 2.0 | 0.00 | 0.05 | 0.00 | 71 | 1013.4 |
| 20260904210521 | 66 | 298 | 0.0 | 2.0 | 0.00 | 0.05 | 0.00 | 69 | 1013.4 |
| 20260904210041 | 67 | 295 | 0.0 | 2.0 | 0.00 | 0.05 | 0.00 | 70 | 1013.3 |
| 20260904205521 | 67 | 0 | 0.0 | 3.0 | 0.00 | 0.05 | 0.00 | 70 | 1013.3 |
| 20260904205022 | 67 | 0 | 0.0 | 3.0 | 0.00 | 0.05 | 0.00 | 69 | 1013.2 |
| 20260904204540 | 67 | 307 | 1.0 | 3.0 | 0.00 | 0.05 | 0.00 | 67 | 1013.2 |
| 20260904204020 | 67 | 286 | 0.0 | 3.0 | 0.00 | 0.05 | 0.00 | 66 | 1013.3 |
| 20260904203520 | 67 | 317 | 1.0 | 2.0 | 0.00 | 0.05 | 0.00 | 67 | 1013.2 |
| 20260904203038 | 68 | 306 | 1.0 | 5.0 | 0.00 | 0.05 | 0.00 | 66 | 1013.3 |
| 20260904202522 | 68 | 339 | 1.0 | 5.0 | 0.00 | 0.05 | 0.00 | 65 | 1013.3 |
| 20260904202018 | 67 | 229 | 1.0 | 5.0 | 0.00 | 0.05 | 0.00 | 68 | 1013.3 |
| 20260904201539 | 67 | 0 | 0.0 | 2.0 | 0.00 | 0.05 | 0.00 | 70 | 1013.2 |
| 20260904201022 | 67 | 0 | 0.0 | 2.0 | 0.00 | 0.05 | 0.00 | 68 | 1013.3 |
| 20260904200521 | 67 | 334 | 1.0 | 5.0 | 0.00 | 0.05 | 0.00 | 69 | 1013.2 |
| 20260904200041 | 68 | 190 | 0.0 | 5.0 | 0.00 | 0.05 | 0.00 | 68 | 1013.1 |
| 20260904195524 | 68 | 186 | 1.0 | 4.0 | 0.00 | 0.05 | 0.00 | 69 | 1013.1 |
| 20260904195020 | 67 | 340 | 1.0 | 4.0 | 0.00 | 0.05 | 0.00 | 70 | 1013.1 |
| 20260904194548 | 66 | 0 | 1.0 | 3.0 | 0.00 | 0.05 | 0.00 | 71 | 1013.0 |
| 20260904194020 | 66 | 47 | 1.0 | 3.0 | 0.00 | 0.05 | 0.00 | 71 | 1013.0 |
| 20260904193520 | 65 | 0 | 0.0 | 2.0 | 0.00 | 0.05 | 0.00 | 72 | 1013.1 |
| 20260904193039 | 65 | 96 | 0.0 | 2.0 | 0.00 | 0.05 | 0.00 | 72 | 1013.2 |
| 20260904192520 | 66 | 193 | 0.0 | 3.0 | 0.00 | 0.05 | 0.00 | 71 | 1013.2 |
| 20260904192026 | 66 | 298 | 1.0 | 3.0 | 0.00 | 0.05 | 0.00 | 72 | 1013.2 |
| 20260904191537 | 65 | 360 | 1.0 | 4.0 | 0.00 | 0.05 | 0.00 | 73 | 1013.2 |
| 20260904191020 | 65 | 295 | 1.0 | 4.0 | 0.00 | 0.05 | 0.00 | 75 | 1013.2 |
| 20260904190526 | 65 | 293 | 1.0 | 4.0 | 0.00 | 0.05 | 0.00 | 74 | 1013.2 |
| 20260904190042 | 64 | 298 | 1.0 | 4.0 | 0.00 | 0.05 | 0.00 | 75 | 1013.3 |
| 20260904185519 | 63 | 344 | 2.0 | 4.0 | 0.00 | 0.05 | 0.00 | 76 | 1013.3 |
| 20260904185025 | 63 | 292 | 1.0 | 4.0 | 0.00 | 0.05 | 0.00 | 77 | 1013.4 |
| 20260904184539 | 63 | 268 | 1.0 | 4.0 | 0.00 | 0.05 | 0.00 | 78 | 1013.4 |
| 20260904184022 | 63 | 322 | 1.0 | 3.0 | 0.00 | 0.05 | 0.00 | 78 | 1013.4 |
| 20260904183521 | 63 | 302 | 1.0 | 3.0 | 0.00 | 0.05 | 0.00 | 78 | 1013.4 |
| 20260904183036 | 63 | 347 | 1.0 | 3.0 | 0.00 | 0.05 | 0.00 | 79 | 1013.4 |
| 20260904182521 | 62 | 286 | 2.0 | 3.0 | 0.00 | 0.05 | 0.00 | 79 | 1013.5 |
| 20260904182024 | 62 | 346 | 1.0 | 3.0 | 0.00 | 0.05 | 0.00 | 82 | 1013.4 |
| 20260904181539 | 62 | 334 | 1.0 | 4.0 | 0.00 | 0.05 | 0.00 | 81 | 1013.4 |
| 20260904181018 | 61 | 336 | 1.0 | 4.0 | 0.00 | 0.05 | 0.00 | 81 | 1013.4 |
| 20260904180521 | 61 | 331 | 0.0 | 3.0 | 0.00 | 0.05 | 0.00 | 81 | 1013.3 |
| 20260904180050 | 61 | 321 | 0.0 | 3.0 | 0.00 | 0.05 | 0.00 | 82 | 1013.3 |
| 20260904175519 | 60 | 322 | 1.0 | 3.0 | 0.00 | 0.05 | 0.00 | 82 | 1013.2 |
| 20260904175022 | 60 | 336 | 1.0 | 3.0 | 0.00 | 0.05 | 0.00 | 83 | 1013.3 |
| 20260904174542 | 60 | 0 | 1.0 | 4.0 | 0.00 | 0.05 | 0.00 | 83 | 1013.4 |
| 20260904174020 | 59 | 306 | 1.0 | 4.0 | 0.00 | 0.05 | 0.00 | 84 | 1013.3 |
| 20260904173520 | 59 | 311 | 1.0 | 4.0 | 0.00 | 0.05 | 0.00 | 85 | 1013.3 |
| 20260904173040 | 59 | 263 | 1.0 | 3.0 | 0.00 | 0.05 | 0.00 | 85 | 1013.4 |
| 20260904172520 | 58 | 302 | 0.0 | 2.0 | 0.00 | 0.05 | 0.00 | 86 | 1013.4 |
| 20260904172018 | 58 | 18 | 0.0 | 2.0 | 0.00 | 0.05 | 0.00 | 87 | 1013.4 |
| 20260904171606 | 58 | 0 | 0.0 | 2.0 | 0.00 | 0.05 | 0.00 | 88 | 1013.3 |
| 20260904171019 | 58 | 0 | 0.0 | 2.0 | 0.00 | 0.05 | 0.00 | 88 | 1013.3 |
| 20260904170518 | 57 | 313 | 0.0 | 2.0 | 0.00 | 0.05 | 0.00 | 89 | 1013.3 |
| 20260904170037 | 57 | 0 | 0.0 | 2.0 | 0.00 | 0.05 | 0.00 | 88 | 1013.3 |
| 20260904165523 | 57 | 319 | 1.0 | 2.0 | 0.00 | 0.05 | 0.00 | 88 | 1013.2 |
| 20260904165021 | 56 | 0 | 0.0 | 2.0 | 0.00 | 0.05 | 0.00 | 89 | 1013.2 |
| 20260904164536 | 56 | 0 | 0.0 | 2.0 | 0.00 | 0.05 | 0.00 | 89 | 1013.2 |
| 20260904164020 | 56 | 0 | 0.0 | 2.0 | 0.00 | 0.05 | 0.00 | 89 | 1013.2 |
| 20260904163520 | 56 | 0 | 0.0 | 1.0 | 0.00 | 0.05 | 0.00 | 89 | 1013.2 |
| 20260904163037 | 56 | 316 | 0.0 | 1.0 | 0.00 | 0.05 | 0.00 | 90 | 1013.2 |
| 20260904162520 | 55 | 0 | 0.0 | 2.0 | 0.00 | 0.05 | 0.00 | 90 | 1013.2 |
| 20260904162021 | 55 | 0 | 0.0 | 2.0 | 0.00 | 0.05 | 0.00 | 90 | 1013.2 |
| 20260904161541 | 55 | 0 | 0.0 | 2.0 | 0.00 | 0.05 | 0.00 | 90 | 1013.2 |
| 20260904161017 | 55 | 0 | 0.0 | 2.0 | 0.00 | 0.05 | 0.00 | 90 | 1013.2 |
| 20260904160519 | 55 | 0 | 0.0 | 2.0 | 0.00 | 0.05 | 0.00 | 90 | 1013.3 |
| 20260904160038 | 55 | 0 | 0.0 | 0.0 | 0.00 | 0.05 | 0.00 | 90 | 1013.2 |
| 20260904155529 | 55 | 0 | 0.0 | 0.0 | 0.00 | 0.07 | 0.00 | 90 | 1013.3 |
| 20260904155021 | 55 | 0 | 0.0 | 0.0 | 0.00 | 0.07 | 0.00 | 90 | 1013.2 |
| 20260904154543 | 55 | 0 | 0.0 | 0.0 | 0.00 | 0.07 | 0.00 | 90 | 1013.2 |
| 20260904154027 | 55 | 0 | 0.0 | 0.0 | 0.00 | 0.07 | 0.00 | 90 | 1013.1 |
| 20260904153522 | 54 | 0 | 0.0 | 0.0 | 0.00 | 0.07 | 0.00 | 90 | 1013.0 |
| 20260904153045 | 54 | 0 | 0.0 | 0.0 | 0.00 | 0.07 | 0.00 | 90 | 1013.0 |
| 20260904152520 | 54 | 0 | 0.0 | 0.0 | 0.00 | 0.07 | 0.00 | 90 | 1013.0 |
| 20260904152020 | 54 | 0 | 0.0 | 0.0 | 0.00 | 0.07 | 0.00 | 90 | 1013.1 |
| 20260904151540 | 54 | 0 | 0.0 | 0.0 | 0.00 | 0.07 | 0.00 | 90 | 1012.8 |
| 20260904151021 | 53 | 0 | 0.0 | 0.0 | 0.00 | 0.07 | 0.00 | 90 | 1012.9 |
| 20260904150519 | 53 | 0 | 0.0 | 0.0 | 0.00 | 0.07 | 0.00 | 90 | 1012.8 |
| 20260904150035 | 53 | 0 | 0.0 | 0.0 | 0.00 | 0.07 | 0.00 | 90 | 1012.8 |
| 20260904145517 | 53 | 0 | 0.0 | 0.0 | 0.00 | 0.08 | 0.00 | 90 | 1012.8 |
| 20260904145026 | 53 | 0 | 0.0 | 0.0 | 0.00 | 0.08 | 0.00 | 90 | 1012.7 |
| 20260904144538 | 53 | 0 | 0.0 | 0.0 | 0.00 | 0.08 | 0.00 | 90 | 1012.7 |
| 20260904144026 | 53 | 0 | 0.0 | 0.0 | 0.00 | 0.08 | 0.00 | 90 | 1012.6 |
| 20260904143518 | 53 | 0 | 0.0 | 0.0 | 0.00 | 0.08 | 0.00 | 90 | 1012.6 |
| 20260904143038 | 52 | 0 | 0.0 | 0.0 | 0.00 | 0.08 | 0.00 | 90 | 1012.5 |
| 20260904142521 | 52 | 0 | 0.0 | 0.0 | 0.00 | 0.08 | 0.00 | 90 | 1012.4 |
| 20260904142022 | 52 | 0 | 0.0 | 0.0 | 0.00 | 0.08 | 0.00 | 90 | 1012.5 |
| 20260904141540 | 52 | 0 | 0.0 | 0.0 | 0.00 | 0.08 | 0.00 | 89 | 1012.3 |
| 20260904141020 | 52 | 0 | 0.0 | 0.0 | 0.00 | 0.08 | 0.00 | 89 | 1012.3 |
| 20260904140517 | 52 | 0 | 0.0 | 0.0 | 0.00 | 0.08 | 0.00 | 89 | 1012.2 |
| 20260904140041 | 52 | 0 | 0.0 | 0.0 | 0.00 | 0.08 | 0.00 | 89 | 1012.1 |
| 20260904135527 | 52 | 0 | 0.0 | 0.0 | 0.00 | 0.10 | 0.00 | 89 | 1012.0 |
| 20260904135018 | 52 | 0 | 0.0 | 0.0 | 0.00 | 0.10 | 0.00 | 89 | 1011.9 |
| 20260904134548 | 52 | 0 | 0.0 | 0.0 | 0.00 | 0.10 | 0.00 | 89 | 1011.8 |
| 20260904134019 | 52 | 0 | 0.0 | 0.0 | 0.00 | 0.10 | 0.00 | 89 | 1011.8 |
| 20260904133523 | 52 | 0 | 0.0 | 0.0 | 0.00 | 0.10 | 0.00 | 89 | 1011.7 |
| 20260904133055 | 52 | 0 | 0.0 | 0.0 | 0.00 | 0.10 | 0.00 | 89 | 1011.7 |
| 20260904132521 | 52 | 0 | 0.0 | 0.0 | 0.00 | 0.10 | 0.00 | 89 | 1011.6 |
| 20260904132020 | 52 | 0 | 0.0 | 0.0 | 0.00 | 0.10 | 0.00 | 89 | 1011.6 |
| 20260904131541 | 52 | 0 | 0.0 | 0.0 | 0.00 | 0.10 | 0.00 | 89 | 1011.6 |
| 20260904131020 | 52 | 0 | 0.0 | 0.0 | 0.00 | 0.10 | 0.00 | 89 | 1011.6 |
| 20260904130522 | 52 | 0 | 0.0 | 0.0 | 0.00 | 0.10 | 0.00 | 89 | 1011.6 |
| 20260904130039 | 52 | 0 | 0.0 | 0.0 | 0.00 | 0.10 | 0.00 | 89 | 1011.6 |
| 20260904125519 | 52 | 0 | 0.0 | 0.0 | 0.00 | 0.12 | 0.00 | 89 | 1011.6 |
| 20260904125019 | 52 | 0 | 0.0 | 0.0 | 0.00 | 0.12 | 0.00 | 89 | 1011.7 |
| 20260904124535 | 52 | 0 | 0.0 | 0.0 | 0.00 | 0.12 | 0.00 | 89 | 1011.7 |
| 20260904124021 | 52 | 0 | 0.0 | 0.0 | 0.00 | 0.12 | 0.00 | 89 | 1011.7 |
| 20260904123522 | 52 | 0 | 0.0 | 0.0 | 0.00 | 0.12 | 0.00 | 89 | 1011.7 |
| 20260904123035 | 52 | 0 | 0.0 | 0.0 | 0.00 | 0.12 | 0.00 | 89 | 1011.6 |
| 20260904122523 | 52 | 0 | 0.0 | 0.0 | 0.00 | 0.12 | 0.00 | 89 | 1011.6 |
| 20260904122021 | 52 | 0 | 0.0 | 0.0 | 0.00 | 0.12 | 0.00 | 89 | 1011.6 |
| 20260904121536 | 52 | 0 | 0.0 | 0.0 | 0.00 | 0.12 | 0.00 | 89 | 1011.5 |
| 20260904121020 | 52 | 0 | 0.0 | 0.0 | 0.00 | 0.12 | 0.00 | 89 | 1011.5 |
| 20260904120520 | 52 | 0 | 0.0 | 0.0 | 0.00 | 0.12 | 0.00 | 89 | 1011.4 |
| 20260904120053 | 52 | 0 | 0.0 | 0.0 | 0.00 | 0.12 | 0.00 | 89 | 1011.4 |
| 20260904115518 | 52 | 0 | 0.0 | 0.0 | 0.00 | 0.17 | 0.00 | 89 | 1011.4 |
| 20260904115024 | 52 | 0 | 0.0 | 0.0 | 0.00 | 0.17 | 0.00 | 89 | 1011.4 |
| 20260904114539 | 52 | 0 | 0.0 | 0.0 | 0.00 | 0.17 | 0.00 | 89 | 1011.3 |
| 20260904114026 | 52 | 0 | 0.0 | 0.0 | 0.00 | 0.17 | 0.00 | 89 | 1011.3 |
| 20260904113522 | 52 | 0 | 0.0 | 0.0 | 0.00 | 0.17 | 0.00 | 89 | 1011.3 |
| 20260904113038 | 52 | 0 | 0.0 | 0.0 | 0.00 | 0.17 | 0.00 | 89 | 1011.2 |
| 20260904112520 | 52 | 0 | 0.0 | 0.0 | 0.00 | 0.17 | 0.00 | 89 | 1011.2 |
| 20260904112021 | 52 | 0 | 0.0 | 0.0 | 0.00 | 0.17 | 0.00 | 89 | 1011.2 |
| 20260904111540 | 52 | 0 | 0.0 | 0.0 | 0.00 | 0.17 | 0.00 | 89 | 1011.1 |
| 20260904111020 | 52 | 0 | 0.0 | 0.0 | 0.00 | 0.17 | 0.00 | 89 | 1011.1 |
| 20260904110520 | 52 | 0 | 0.0 | 0.0 | 0.00 | 0.17 | 0.00 | 89 | 1011.0 |
| 20260904110038 | 52 | 0 | 0.0 | 0.0 | 0.00 | 0.17 | 0.00 | 89 | 1011.0 |
| 20260904105523 | 52 | 0 | 0.0 | 0.0 | 0.00 | 0.21 | 0.00 | 89 | 1010.9 |
| 20260904105018 | 52 | 0 | 0.0 | 0.0 | 0.00 | 0.21 | 0.00 | 89 | 1010.9 |
| 20260904104601 | 52 | 0 | 0.0 | 0.0 | 0.00 | 0.21 | 0.00 | 89 | 1010.9 |
| 20260904104023 | 52 | 0 | 0.0 | 0.0 | 0.00 | 0.21 | 0.00 | 89 | 1010.9 |
| 20260904103521 | 52 | 0 | 0.0 | 0.0 | 0.00 | 0.21 | 0.00 | 89 | 1010.9 |
| 20260904103038 | 52 | 0 | 0.0 | 0.0 | 0.00 | 0.21 | 0.00 | 89 | 1010.9 |
| 20260904102524 | 53 | 0 | 0.0 | 0.0 | 0.00 | 0.21 | 0.00 | 89 | 1010.9 |
| 20260904102025 | 53 | 0 | 0.0 | 0.0 | 0.00 | 0.21 | 0.00 | 89 | 1010.8 |
| 20260904101541 | 53 | 0 | 0.0 | 0.0 | 0.00 | 0.21 | 0.00 | 89 | 1010.8 |
| 20260904101020 | 53 | 0 | 0.0 | 0.0 | 0.00 | 0.21 | 0.00 | 89 | 1010.8 |
| 20260904100520 | 53 | 0 | 0.0 | 0.0 | 0.00 | 0.21 | 0.00 | 89 | 1010.8 |
| 20260904100042 | 53 | 0 | 0.0 | 0.0 | 0.00 | 0.21 | 0.00 | 89 | 1010.7 |
| 20260904095520 | 53 | 0 | 0.0 | 0.0 | 0.00 | 0.21 | 0.00 | 89 | 1010.8 |
| 20260904095019 | 53 | 0 | 0.0 | 0.0 | 0.00 | 0.21 | 0.00 | 89 | 1010.7 |
| 20260904094551 | 53 | 0 | 0.0 | 0.0 | 0.00 | 0.21 | 0.00 | 89 | 1010.7 |
| 20260904094016 | 53 | 0 | 0.0 | 0.0 | 0.00 | 0.21 | 0.00 | 89 | 1010.7 |
| 20260904093522 | 53 | 0 | 0.0 | 0.0 | 0.00 | 0.21 | 0.00 | 89 | 1010.7 |
| 20260904093036 | 53 | 0 | 0.0 | 0.0 | 0.00 | 0.21 | 0.00 | 89 | 1010.6 |
| 20260904092520 | 53 | 0 | 0.0 | 0.0 | 0.00 | 0.21 | 0.00 | 89 | 1010.7 |
| 20260904092020 | 53 | 0 | 0.0 | 0.0 | 0.00 | 0.21 | 0.00 | 89 | 1010.7 |
| 20260904091538 | 53 | 0 | 0.0 | 0.0 | 0.00 | 0.21 | 0.00 | 89 | 1010.7 |
| 20260904091016 | 54 | 0 | 0.0 | 0.0 | 0.00 | 0.21 | 0.00 | 89 | 1010.7 |
| 20260904090523 | 53 | 0 | 0.0 | 0.0 | 0.00 | 0.21 | 0.00 | 89 | 1010.8 |
| 20260904090038 | 54 | 0 | 0.0 | 0.0 | 0.00 | 0.21 | 0.00 | 89 | 1010.8 |
| 20260904085518 | 53 | 0 | 0.0 | 0.0 | 0.00 | 0.21 | 0.00 | 89 | 1010.8 |
| 20260904085027 | 53 | 0 | 0.0 | 0.0 | 0.00 | 0.21 | 0.00 | 89 | 1010.8 |
| 20260904084538 | 53 | 0 | 0.0 | 0.0 | 0.00 | 0.21 | 0.00 | 89 | 1010.8 |
| 20260904084021 | 53 | 0 | 0.0 | 0.0 | 0.00 | 0.21 | 0.00 | 89 | 1011.0 |
| 20260904083522 | 53 | 0 | 0.0 | 0.0 | 0.00 | 0.21 | 0.00 | 89 | 1010.9 |
| 20260904083035 | 53 | 0 | 0.0 | 0.0 | 0.00 | 0.21 | 0.00 | 89 | 1010.9 |
| 20260904082516 | 53 | 0 | 0.0 | 0.0 | 0.00 | 0.21 | 0.00 | 89 | 1011.0 |
| 20260904082019 | 53 | 0 | 0.0 | 0.0 | 0.00 | 0.21 | 0.00 | 89 | 1010.9 |
| 20260904081539 | 53 | 0 | 0.0 | 0.0 | 0.00 | 0.21 | 0.00 | 89 | 1010.9 |
| 20260904081021 | 53 | 0 | 0.0 | 0.0 | 0.00 | 0.21 | 0.00 | 89 | 1010.9 |
| 20260904080522 | 53 | 0 | 0.0 | 0.0 | 0.00 | 0.21 | 0.00 | 89 | 1010.8 |
| 20260904080038 | 53 | 0 | 0.0 | 0.0 | 0.00 | 0.21 | 0.00 | 89 | 1010.9 |
| 20260904075521 | 53 | 0 | 0.0 | 0.0 | 0.00 | 0.24 | 0.00 | 89 | 1010.9 |
| 20260904075023 | 53 | 0 | 0.0 | 0.0 | 0.00 | 0.24 | 0.00 | 89 | 1010.9 |
| 20260904074538 | 53 | 0 | 0.0 | 0.0 | 0.00 | 0.24 | 0.00 | 89 | 1010.9 |
| 20260904074023 | 52 | 0 | 0.0 | 0.0 | 0.00 | 0.24 | 0.00 | 89 | 1010.8 |
| 20260904073516 | 52 | 0 | 0.0 | 0.0 | 0.00 | 0.24 | 0.00 | 89 | 1010.7 |
| 20260904073037 | 52 | 0 | 0.0 | 0.0 | 0.00 | 0.24 | 0.00 | 89 | 1010.7 |
| 20260904072522 | 52 | 0 | 0.0 | 0.0 | 0.00 | 0.24 | 0.00 | 89 | 1010.6 |
| 20260904072021 | 52 | 0 | 0.0 | 0.0 | 0.00 | 0.24 | 0.00 | 89 | 1010.7 |
| 20260904071539 | 52 | 0 | 0.0 | 0.0 | 0.00 | 0.24 | 0.00 | 89 | 1010.7 |
| 20260904071020 | 52 | 0 | 0.0 | 0.0 | 0.00 | 0.24 | 0.00 | 89 | 1010.7 |
| 20260904070521 | 52 | 0 | 0.0 | 0.0 | 0.00 | 0.24 | 0.00 | 89 | 1010.6 |
| 20260904070042 | 52 | 0 | 0.0 | 0.0 | 0.00 | 0.24 | 0.00 | 89 | 1010.6 |
| 20260904065524 | 52 | 0 | 0.0 | 0.0 | 0.00 | 0.24 | 0.24 | 89 | 1010.5 |
| 20260904065020 | 52 | 0 | 0.0 | 0.0 | 0.00 | 0.24 | 0.24 | 89 | 1010.5 |
| 20260904064537 | 52 | 0 | 0.0 | 0.0 | 0.00 | 0.24 | 0.24 | 89 | 1010.4 |
| 20260904064020 | 52 | 0 | 0.0 | 0.0 | 0.00 | 0.24 | 0.24 | 89 | 1010.6 |
| 20260904063516 | 52 | 0 | 0.0 | 0.0 | 0.00 | 0.24 | 0.24 | 89 | 1010.5 |
| 20260904063044 | 52 | 0 | 0.0 | 0.0 | 0.00 | 0.24 | 0.24 | 89 | 1010.6 |
| 20260904062521 | 52 | 0 | 0.0 | 0.0 | 0.00 | 0.24 | 0.24 | 89 | 1010.5 |
| 20260904062023 | 52 | 0 | 0.0 | 0.0 | 0.00 | 0.24 | 0.24 | 89 | 1010.5 |
| 20260904061542 | 52 | 0 | 0.0 | 0.0 | 0.00 | 0.24 | 0.24 | 89 | 1010.5 |
| 20260904061025 | 52 | 0 | 0.0 | 0.0 | 0.00 | 0.24 | 0.24 | 89 | 1010.4 |
| 20260904060523 | 52 | 0 | 0.0 | 0.0 | 0.00 | 0.24 | 0.24 | 89 | 1010.5 |
| 20260904060108 | 52 | 0 | 0.0 | 0.0 | 0.00 | 0.24 | 0.24 | 89 | 1010.5 |
| 20260904055519 | 52 | 0 | 0.0 | 0.0 | 0.00 | 0.24 | 0.24 | 89 | 1010.5 |
| 20260904055020 | 52 | 0 | 0.0 | 0.0 | 0.00 | 0.24 | 0.24 | 89 | 1010.6 |
| 20260904054541 | 52 | 0 | 0.0 | 0.0 | 0.00 | 0.24 | 0.24 | 89 | 1010.6 |
| 20260904054021 | 52 | 0 | 0.0 | 0.0 | 0.00 | 0.24 | 0.24 | 89 | 1010.5 |
| 20260904053525 | 52 | 0 | 0.0 | 0.0 | 0.00 | 0.24 | 0.24 | 89 | 1010.5 |
| 20260904053129 | 52 | 0 | 0.0 | 0.0 | 0.00 | 0.24 | 0.24 | 89 | 1010.6 |
| 20260904052523 | 52 | 0 | 0.0 | 0.0 | 0.00 | 0.24 | 0.24 | 88 | 1010.5 |
| 20260904052023 | 52 | 0 | 0.0 | 0.0 | 0.00 | 0.24 | 0.24 | 88 | 1010.5 |
| 20260904051602 | 52 | 0 | 0.0 | 0.0 | 0.00 | 0.24 | 0.24 | 88 | 1010.6 |
| 20260904051026 | 52 | 0 | 0.0 | 0.0 | 0.00 | 0.24 | 0.24 | 88 | 1010.6 |
| 20260904050523 | 52 | 0 | 0.0 | 0.0 | 0.00 | 0.24 | 0.24 | 88 | 1010.6 |
| 20260904050040 | 53 | 0 | 0.0 | 0.0 | 0.00 | 0.24 | 0.24 | 88 | 1010.5 |
| 20260904045520 | 53 | 0 | 0.0 | 0.0 | 0.00 | 0.24 | 0.24 | 88 | 1010.5 |
| 20260904045019 | 53 | 0 | 0.0 | 0.0 | 0.00 | 0.24 | 0.24 | 88 | 1010.6 |
| 20260904044554 | 53 | 0 | 0.0 | 0.0 | 0.00 | 0.24 | 0.24 | 88 | 1010.6 |
| 20260904044017 | 53 | 0 | 0.0 | 0.0 | 0.00 | 0.24 | 0.24 | 88 | 1010.7 |
| 20260904043520 | 53 | 0 | 0.0 | 0.0 | 0.00 | 0.24 | 0.24 | 88 | 1010.6 |
| 20260904043041 | 53 | 0 | 0.0 | 0.0 | 0.00 | 0.24 | 0.24 | 88 | 1010.6 |
| 20260904042520 | 53 | 0 | 0.0 | 0.0 | 0.00 | 0.24 | 0.24 | 87 | 1010.6 |
| 20260904042019 | 53 | 0 | 0.0 | 0.0 | 0.00 | 0.24 | 0.24 | 87 | 1010.4 |
| 20260904041539 | 53 | 0 | 0.0 | 0.0 | 0.00 | 0.24 | 0.24 | 87 | 1010.5 |
| 20260904041019 | 53 | 0 | 0.0 | 0.0 | 0.00 | 0.24 | 0.24 | 87 | 1010.6 |
| 20260904040518 | 54 | 0 | 0.0 | 0.0 | 0.00 | 0.24 | 0.24 | 87 | 1010.5 |
| 20260904040049 | 54 | 0 | 0.0 | 0.0 | 0.00 | 0.24 | 0.24 | 86 | 1010.6 |
| 20260904035525 | 54 | 0 | 0.0 | 0.0 | 0.00 | 0.24 | 0.24 | 86 | 1010.5 |
| 20260904035028 | 54 | 0 | 0.0 | 2.0 | 0.00 | 0.24 | 0.24 | 86 | 1010.4 |
| 20260904034540 | 54 | 0 | 0.0 | 2.0 | 0.00 | 0.24 | 0.24 | 86 | 1010.3 |
| 20260904034020 | 54 | 0 | 0.0 | 0.0 | 0.00 | 0.24 | 0.24 | 85 | 1010.3 |
| 20260904033518 | 55 | 0 | 0.0 | 0.0 | 0.00 | 0.24 | 0.24 | 85 | 1010.3 |
| 20260904033056 | 55 | 0 | 0.0 | 0.0 | 0.00 | 0.24 | 0.24 | 85 | 1010.2 |
| 20260904032523 | 55 | 0 | 0.0 | 0.0 | 0.00 | 0.24 | 0.24 | 85 | 1010.1 |
| 20260904032018 | 55 | 0 | 0.0 | 0.0 | 0.00 | 0.24 | 0.24 | 85 | 1010.1 |
| 20260904031536 | 55 | 0 | 0.0 | 0.0 | 0.00 | 0.24 | 0.24 | 85 | 1010.2 |
| 20260904031021 | 56 | 0 | 0.0 | 0.0 | 0.00 | 0.24 | 0.24 | 84 | 1010.2 |
| 20260904030521 | 56 | 0 | 0.0 | 0.0 | 0.00 | 0.24 | 0.24 | 84 | 1010.1 |
| 20260904030036 | 56 | 0 | 0.0 | 0.0 | 0.00 | 0.24 | 0.24 | 84 | 1010.1 |
| 20260904025521 | 56 | 0 | 0.0 | 0.0 | 0.00 | 0.24 | 0.24 | 85 | 1010.1 |
| 20260904025021 | 56 | 0 | 0.0 | 0.0 | 0.00 | 0.24 | 0.24 | 85 | 1010.0 |
| 20260904024538 | 56 | 0 | 0.0 | 0.0 | 0.00 | 0.24 | 0.24 | 85 | 1010.0 |
| 20260904024019 | 56 | 0 | 0.0 | 2.0 | 0.00 | 0.24 | 0.24 | 84 | 1010.0 |
| 20260904023521 | 56 | 0 | 0.0 | 2.0 | 0.00 | 0.24 | 0.24 | 84 | 1010.0 |
| 20260904023048 | 56 | 0 | 0.0 | 7.0 | 0.00 | 0.24 | 0.24 | 83 | 1010.0 |
| 20260904022523 | 56 | 237 | 1.0 | 7.0 | 0.00 | 0.24 | 0.24 | 83 | 1010.0 |
| 20260904022017 | 57 | 0 | 0.0 | 2.0 | 0.00 | 0.24 | 0.24 | 85 | 1009.9 |
| 20260904021536 | 57 | 0 | 0.0 | 2.0 | 0.00 | 0.24 | 0.24 | 85 | 1010.0 |
| 20260904021021 | 57 | 306 | 0.0 | 2.0 | 0.00 | 0.24 | 0.24 | 85 | 1009.9 |
| 20260904020521 | 57 | 0 | 0.0 | 2.0 | 0.00 | 0.24 | 0.24 | 84 | 1010.0 |
| 20260904020040 | 57 | 0 | 0.0 | 0.0 | 0.00 | 0.24 | 0.24 | 84 | 1010.0 |
| 20260904015520 | 57 | 0 | 0.0 | 0.0 | 0.00 | 0.24 | 0.24 | 84 | 1009.9 |
| 20260904015022 | 58 | 0 | 0.0 | 0.0 | 0.00 | 0.24 | 0.24 | 84 | 1009.9 |
| 20260904014541 | 58 | 0 | 0.0 | 0.0 | 0.00 | 0.24 | 0.24 | 83 | 1009.8 |
| 20260904014022 | 58 | 0 | 0.0 | 2.0 | 0.00 | 0.24 | 0.24 | 82 | 1009.8 |
| 20260904013519 | 58 | 0 | 0.0 | 2.0 | 0.00 | 0.24 | 0.24 | 83 | 1009.7 |
| 20260904013036 | 58 | 25 | 0.0 | 2.0 | 0.00 | 0.24 | 0.24 | 83 | 1009.7 |